Weather in Tokmok

Kyrgyzstan     42°49′49″N   75°18′04″E
temp.,
°C
wind,
m/s
gust,
m/s
humid.,
%
clouds,
%
prec.,
mm/h
press.,
hPa
HPBL,
m
12 august, fri
fri1200:00+19se235681 0.9 101360
03:00+16sse22650 0.1 101312
06:00+15sse12650 0.1 101411
09:00+21ne11462 0.0 1013570
12:00+26nw33302 0.0 10111909
15:00+29nw542442 0.0 10092721
18:00+28wnw44239 0.0 10092576
21:00+21ssw33354 0.0 101125
13 august, sat
sat1300:00+19sse33420 0.0 101126
03:00+18s22440 0.0 101113
06:00+17s22460 0.0 101211
09:00+23n21330 0.0 1011479
12:00+28nw32230 0.0 10091595
15:00+31nw54192 0.0 10082526
18:00+30wnw54193 0.0 10082647
21:00+22s33320 0.0 101029
14 august, sun
sun1400:00+20sse33360 0.0 100924
03:00+20s22370 0.0 100816
06:00+19s22370 0.0 100816
09:00+26nne22270 0.0 1007565
12:00+32nw43190 0.0 10051895
15:00+35nw54152 0.0 10032594
18:00+33w54153 0.0 10042268
21:00+24sse33270 0.0 100634
15 august, mon
mon1500:00+23sse22290 0.0 100619
03:00+22s22310 0.0 100514
06:00+21s12344 0.0 100512
09:00+26nnw21253 0.0 1006402
12:00+32nw43184 0.0 10041417
15:00+34nw54158 0.1 10022277
18:00+33w65145 0.1 10032047
21:00+24sse33250 0.0 100527
16 august, tue
tue1600:00+22sse22280 0.0 100621
03:00+21s12300 0.0 100615
06:00+18wsw22352 0.0 100711
09:00+24nw222781 0.0 1008494
12:00+29nw43211 0.1 10061428
15:00+29w3424100 0.4 10051495
18:00+29w7619100 0.8 10052249
21:00+21ssw2231100 0.0 100927